Tracking 27380 objects as of 5-Jun-2023
HD Live streaming from Space Station
objects crossing your sky now

SOLRAD 11B AKM

Track SOLRAD 11B AKM now!


NORAD ID: 8753
Int'l Code: 1976-023H
Perigee: 118,414.5 km
Apogee: 127,028.1 km
Inclination: 19.9 °
Period: 7,693.3 minutes
Semi major axis: 129092 km
RCS: Unknown
Launch date: March 15, 1976
Source: United States (US)
Launch site: AIR FORCE EASTERN TEST RANGE (AFETR)

Note: This is a ROCKET BODY
Your satellite tracking list
Your tracking list is empty




NASA's NSSDC Master Catalog

Two Line Element Set (TLE):
1 08753U 76023H   23147.96264355 -.00000891  00000-0  00000-0 0  9997
2 08753  19.9449 324.9011 0333619  87.0222   3.2980  0.18717696  3322
Source of the keplerian elements: AFSPC